Lid_Strength_Index
11 12 12 12 11 12 12 12 12 12 12 12 11 11 11 11 11 11 12 12 12 12 12 13 13 12 12 13 14 14 14 15 14 12 18 20 18 18 16 16 16 15 15
10 11 12 12 12 12 13 13 12 12 11 11 11 11 11 11 11 12 13 12 12 13 13 13 12 12 13 13 14 14 14 15 14 13 15 19 18 21 21 20 16 14 16
11 12 12 12 12 12 12 12 11 11 11 11 11 11 11 12 12 13 13 12 13 13 12 13 12 13 14 14 14 14 15 13 16 14 13 20 20 20 19 18 18 19 14
11 11 12 12 11 11 11 11 11 11 11 11 11 11 12 13 13 13 13 13 13 13 13 13 13 14 14 14 14 14 14 16 18 18 18 18 20 20 19 18 16 17 17
10 11 11 11 11 11 11 11 11 11 11 12 12 13 13 13 13 13 13 14 14 14 14 14 14 14 13 12 13 14 15 18 18 17 18 20 20 19 18 19 17 16 16
11 12 11 11 11 11 11 12 12 12 13 13 13 13 13 12 11 11 12 13 14 14 15 15 15 15 14 12 12 11 11 15 17 18 19 18 17 18 18 16 16 16 17
11 11 11 11 12 12 12 12 13 13 14 14 13 13 14 13 12 12 13 14 14 15 15 15 15 14 15 15 13 12 12 11 10 15 15 14 15 16 17 15 15 16 16
12 12 12 12 13 13 13 13 13 13 14 14 14 14 15 13 12 12 13 14 15 15 15 15 15 15 14 14 14 13 13 13 13 13 13 13 14 14 14 14 14 14 13
13 13 13 13 13 14 13 14 14 14 15 15 15 15 15 14 12 12 14 15 15 15 14 14 14 14 11 10 13 13 13 13 12 11 10 9 10 10 11 13 14 15 15
14 14 13 13 13 14 14 15 15 14 15 15 15 15 16 14 13 13 14 15 15 14 14 14 13 13 10 9 13 13 14 14 13 13 13 12 12 12 10 12 12 14 13
14 14 14 14 14 14 15 15 15 15 15 15 15 15 15 14 14 13 13 14 14 14 14 14 13 10 10 10 10 12 12 12 13 14 14 14 13 13 12 11 11 11 12
15 14 15 15 15 15 15 15 14 14 14 15 15 15 15 15 14 13 12 12 12 14 14 13 12 11 11 10 10 10 11 13 16 17 17 16 16 15 14 13 11 11 10
15 16 16 16 16 15 14 14 14 14 15 15 16 16 16 15 14 13 12 12 12 14 13 12 11 11 11 12 11 11 15 16 17 18 18 17 15 15 16 14 14 12 13
16 17 17 16 16 15 14 14 14 15 15 16 16 16 15 15 14 13 14 15 13 13 13 12 12 12 12 12 12 11 12 12 11 12 14 17 18 17 17 14 15 14 14
15 15 15 15 14 14 14 14 15 15 15 15 15 15 15 15 13 12 13 15 16 14 13 14 13 13 13 12 11 13 17 12 11 11 10 11 14 12 17 16 17 16 15
15 15 14 14 14 14 14 15 13 13 13 13 12 13 13 11 10 10 10 10 10 11 19 16 13 12 14 16 17 14 12 11 11 10 9 9 12 14 17 17 16 15 15
13 13 14 14 14 15 15 15 16 14 12 12 11 11 10 10 10 10 10 10 10 13 14 12 12 11 11 11 11 11 11 10 9 9 9 15 17 18 17 18 16 16 16
13 14 14 15 15 15 15 15 15 15 15 13 11 11 10 10 10 10 10 13 16 11 12 12 11 10 10 10 10 11 11 10 10 11 14 18 20 19 19 19 17 16 16
14 14 14 15 14 14 14 14 13 13 13 13 12 11 11 10 10 10 10 18 13 12 11 11 10 10 11 10 11 11 12 12 12 12 13 13 20 19 20 19 18 16 16
14 15 15 14 14 14 13 13 13 13 13 13 13 13 12 12 13 13 12 12 16 13 11 11 11 10 10 10 11 11 11 12 12 13 14 15 17 18 17 18 18 18 18
15 14 13 13 13 13 13 13 13 13 13 13 13 12 11 12 13 12 12 12 12 12 12 11 11 10 10 10 10 10 10 11 11 11 11 11 11 11 14 14 17 18 18
13 13 13 13 13 12 12 12 13 13 13 13 12 12 10 11 12 12 12 11 11 10 10 10 10 10 10 10 10 10 10 10 10 11 11 10 10 10 10 11 13 17 19
12 13 13 13 12 12 12 12 13 13 13 13 13 12 11 12 11 11 11 11 11 10 10 11 11 11 10 10 10 11 10 10 10 10 11 11 10 10 10 11 14 16 16
12 12 13 13 13 13 13 13 13 13 13 13 13 12 12 11 11 11 11 16 17 23 17 12 12 11 11 11 11 11 11 11 11 11 10 11 11 10 10 10 12 14 14
12 12 13 13 13 13 13 13 13 13 14 14 14 13 14 17 18 21 22 30 29 29 28 28 27 25 25 22 21 19 13 11 12 12 13 13 12 11 10 10 10 12 12
12 12 13 13 13 14 15 15 16 16 16 16 18 18 18 27 29 30 31 31 30 30 30 29 28 27 25 24 23 19 17 15 15 14 13 12 12 11 10 10 10 11 12